Regional Weather Roundup
Issued by NWS Huntsville, AL

Home | Current Version | Previous Version | Text Only | Print | Product List | Glossary On
Versions: 1 2 3 4 5 6 7 8 9 10 11 12 13 14 15 16 17 18 19 20 21 22 23 24 25 26 27 28 29 30 31 32 33 34 35 36 37 38 39 40 41 42 43 44 45 46 47 48 49 50
000
ASUS44 KHUN 230110
RWRHUN

WEATHER ROUNDUP FOR THE TENNESSEE VALLEY
NATIONAL WEATHER SERVICE HUNTSVILLE AL
700 PM CST MON DEC 22 2014

ALZ001>004-230200-
NORTHWEST ALABAMA

CITY           SKY/WX    TMP DP  RH WIND       PRES   REMARKS
SHOALS AIRPORT CLOUDY    53  50  89 SE10      29.73S
SHOALS TVA RES   N/A     52 N/A N/A MISG        N/A
$$

ALZ005>007-016-230200-
NORTH CENTRAL ALABAMA

CITY           SKY/WX    TMP DP  RH WIND       PRES   REMARKS
DECATUR AP     CLOUDY    51  48  89 SE9       29.76R
HUNTSVILLE AP  CLOUDY    52  47  83 SE14      29.75S
HUN NWS/UAH      N/A     50  46  85 SE9         N/A
MERIDIANVILLE  CLOUDY    48  43  81 SE14G21   29.76S
REDSTONE ARSN  CLOUDY    50  48  93 SE15G24   29.75S
VINEMONT AP    HVY RAIN  48  48  97 SE10G18   29.77F
$$

ALZ008>010-230200-
NORTHEAST ALABAMA

CITY           SKY/WX    TMP DP  RH WIND       PRES   REMARKS
ALBERTVILLE    CLOUDY    46  46 100 SE8G17    29.79S
FORT PAYNE     CLOUDY    45  41  87 E3G20     29.83S
SCOTTSBORO AP  LGT RAIN  48  46  93 E3        29.83R
VALLEY HEAD      N/A     45 N/A N/A MISG        N/A
$$

TNZ076-096-097-230200-
SOUTHEASTERN MIDDLE TENNESSEE

CITY           SKY/WX    TMP DP  RH WIND       PRES   REMARKS
TULLAHOMA      CLOUDY    48  46  93 SE8       29.76F
WINCHESTER     CLOUDY    48  46  93 SE9       29.79R
$$

...SURROUNDING SITES...

CITY           SKY/WX    TMP DP  RH WIND       PRES   REMARKS
ATLANTA        LGT RAIN  45  42  89 E13       29.92S
ANNISTON       LGT RAIN  49  46  90 NE9       29.85F
BIRMINGHAM     CLOUDY    52  49  89 E8G21     29.81R
CHATTANOOGA    LGT RAIN  48  45  89 S8        29.86S
CORINTH        CLOUDY    55  54  94 S7        29.68R FOG
DALTON         DRIZZLE   45  45 100 S5        29.88R
GADSDEN        CLOUDY    48  45  87 E8        29.83F
GOLDEN TRNGL   NOT AVBL
HALEYVILLE     LGT RAIN  52  52 100 SE8G17    29.76S FOG
JACKSON TN     CLOUDY    55  52  89 S7        29.65R
LEWISBURG      CLOUDY    50  48  92 S8        29.73F
MEMPHIS        LGT RAIN  57  54  89 S7        29.63R FOG
MURFREESBORO   CLOUDY    52  48  86 SE9       29.74S
NASHVILLE      CLOUDY    52  48  86 SE12      29.73F
OXFORD MS      CLOUDY    54  54 100 SE9       29.68S FOG
ROME           LGT RAIN  46  43  89 SE9       29.89R
SAVANNAH       CLOUDY    52  52 100 S9        29.69R
TUPELO         CLOUDY    55  53  93 S12       29.69S FOG
TUSCALOOSA     CLOUDY    56  53  90 SE7       29.77R
$$

...GULF COAST WEATHER...

CITY           SKY/WX    TMP DP  RH WIND       PRES   REMARKS
GULFPORT       CLOUDY    67  65  93 S13G20    29.74R
PASCAGOULA     CLEAR     68  65  90 VRB7G17   29.75S
MOBILE         PTCLDY    66  65  96 S9        29.77
GULF SHORES    PTCLDY    67  67  97 S7        29.79S
PENSACOLA      MOCLDY    63  63 100 S6        29.79S
DESTIN         MOCLDY    62  62 100 CALM      29.82R
PANAMA CITY    PTCLDY    67  67 100 S6        29.85R
APPALACHICOLA  FOG       67  64  90 E3        29.86R VSB 1/2
$$



USA.gov is the U.S. government's official web portal to all federal, state and local government web resources and services.